Weather Roundup
Issued by NWS Chicago, IL

Home | Current Version | Previous Version | Graphics & Text | Print | Product List | Glossary On
Versions: 1 2 3 4 5 6 7 8 9 10 11 12 13 14 15 16 17 18 19 20 21 22 23 24 25 26 27 28 29 30 31 32 33 34 35 36 37 38 39 40 41 42 43 44 45 46 47 48 49 50
000
NZUS59 KLOT 091608
HRRLOT

CHICAGO AREA WEATHER ROUNDUP
NATIONAL WEATHER SERVICE CHICAGO/ROMEOVILLE IL
1000 AM CST FRI DEC 09 2016

NOTE: "FAIR" INDICATES FEW OR NO CLOUDS BELOW 12,000 FEET WITH NO
SIGNIFICANT WEATHER AND/OR OBSTRUCTIONS TO VISIBILITY.

* THESE STATIONS ARE NOT UNDER NWS QUALITY CONTROL. THEY ALSO MAY NOT
  REPORT WEATHER SUCH AS PRECIPITATION OR FOG.

ILZ005-006-012>014-019>023-091700-
NORTHEAST ILLINOIS

CITY           SKY/WX    TMP DP  RH WIND       PRES   REMARKS
OHARE          FLURRIES  24  17  74 W12       30.53R WCI  13
MIDWAY         FLURRIES  25  15  66 W10       30.54R WCI  15
AURORA         CLOUDY    24  18  77 W14       30.56R WCI  12
LANSING*       CLOUDY    25  19  79 W9        30.54S WCI  15
JOLIET*        CLOUDY    25  19  77 W6        30.57R WCI  18
WAUKEGAN       PTSUNNY   24  12  60 NW12G20   30.51R WCI  13
DUPAGE AIRPORT FLURRIES  23  15  71 W13       30.53R WCI  11
WHEELING       CLOUDY    24  16  71 W9        30.54R WCI  14
KANKAKEE*      CLOUDY    24  17  74 W10G18    30.57S WCI  13
MORRIS*        CLOUDY    24  18  78 W10       30.56S WCI  13
LEWIS AIRPORT* CLOUDY    24  20  87 W9        30.55R WCI  14
NORTHERLY ISL    N/A     25  17  72 W13         N/A  WCI  14
$$

WIZ051-052-058>065-066-070>072-091700-
SOUTHEAST WISCONSIN

CITY           SKY/WX    TMP DP  RH WIND       PRES   REMARKS
MILWAUKEE      MOSUNNY   25  12  58 NW13      30.50R WCI  14
KENOSHA*       MOSUNNY   24  13  62 NW14      30.51R WCI  12
RACINE*        SUNNY     24  12  60 NW14      30.52R WCI  12
BURLINGTON     SUNNY     28  19  69 NW14      30.51S WCI  17
WAUKESHA       PTSUNNY   19  12  73 W14G20    30.51R WCI   6
WEST BEND      SUNNY     21  14  73 NW15G22   30.48R WCI   8
$$

INZ001>003-010>013-019-020-091700-
NORTHWEST INDIANA

CITY           SKY/WX    TMP DP  RH WIND       PRES   REMARKS
GARY*          CLOUDY    27  18  69 W8        30.55R WCI  18
MICHIGAN CITY* NOT AVBL
RENSSELAER*    NOT AVBL
VALPARAISO     CLOUDY    26  17  68 W13       30.52R WCI  15
$$

LMZ740>746-091700-
SOUTHERN LAKE MICHIGAN

STATION/POSITION TIME  SKY/WX   TEMP WIND        PRES    VSBY
                                AIR  DIR/SP/G
                 (UTC)          (F)  (DEG/KT/KT) (MB)    (MI)
HARRISON CRIB    1540            25  300/ 13/ 15   N/A
BURNHAM HARBOR   1600            25  290/  6/ 12   N/A
CALUMET HARBOR   1542            25  270/  7/ 12 1033.3R
BURNS HARBOR     1540            27  270/ 16/ 21 1033.5R
MICHIGAN CITY    NOT AVBL
$$

ABBREVIATIONS USED IN REMARKS
   TC - TEMPERATURE IN CELSIUS
  WCI - WIND CHILL INDEX
   HX - HEAT INDEX
  VSB - VISIBILITY
$$



USA.gov is the U.S. government's official web portal to all federal, state and local government web resources and services.